Time,TemperatureF,DewpointF,PressureIn,WindDirection,WindDirectionDegrees,WindSpeedMPH,WindSpeedGustMPH,Humidity,HourlyPrecipIn,Conditions,Clouds,dailyrainin,SoftwareType,DateUTC
2013-08-28 10:00:00,77.0,53.0,-100.00,SSW,193,5.0,-999.0,43,0.00,,,-99.99,,2013-08-28 17:00:00,
2013-08-28 10:44:00,77.0,53.0,-100.00,SSW,193,5.0,-999.0,43,0.00,,,-99.99,,2013-08-28 17:44:00,
2013-08-28 10:52:00,77.0,53.0,-100.00,SSW,193,5.0,-999.0,43,0.00,,,-99.99,,2013-08-28 17:52:00,
2013-08-28 11:00:00,81.0,53.0,-100.00,SW,216,4.0,-999.0,37,0.00,,,-99.99,,2013-08-28 18:00:00,
2013-08-28 11:42:00,81.0,53.0,-100.00,SW,216,4.0,-999.0,37,0.00,,,-99.99,,2013-08-28 18:42:00,
2013-08-28 11:53:00,81.0,53.0,-100.00,SW,216,4.0,-999.0,37,0.00,,,-99.99,,2013-08-28 18:53:00,
2013-08-28 12:00:00,84.0,54.0,-100.00,West,267,9.0,-999.0,35,0.00,,,-99.99,,2013-08-28 19:00:00,
2013-08-28 12:42:00,84.0,54.0,-100.00,West,267,9.0,-999.0,35,0.00,,,-99.99,,2013-08-28 19:42:00,
2013-08-28 12:52:00,84.0,54.0,-100.00,West,267,9.0,-999.0,35,0.00,,,-99.99,,2013-08-28 19:52:00,
2013-08-28 13:00:00,87.0,54.0,-100.00,SSW,194,3.0,-999.0,33,0.00,,,-99.99,,2013-08-28 20:00:00,
2013-08-28 13:43:00,87.0,54.0,-100.00,SSW,194,3.0,-999.0,33,0.00,,,-99.99,,2013-08-28 20:43:00,
2013-08-28 13:52:00,87.0,54.0,-100.00,SSW,194,3.0,-999.0,33,0.00,,,-99.99,,2013-08-28 20:52:00,
2013-08-28 14:00:00,90.0,53.0,-100.00,West,276,9.0,-999.0,27,0.00,,,-99.99,,2013-08-28 21:00:00,
2013-08-28 14:44:00,90.0,53.0,-100.00,West,276,9.0,-999.0,27,0.00,,,-99.99,,2013-08-28 21:44:00,
2013-08-28 14:57:00,90.0,53.0,-100.00,West,276,9.0,-999.0,27,0.00,,,-99.99,,2013-08-28 21:57:00,
2013-08-28 15:00:00,92.0,53.0,-100.00,North,5,5.0,-999.0,26,0.00,,,-99.99,,2013-08-28 22:00:00,
2013-08-28 15:43:00,92.0,53.0,-100.00,North,5,5.0,-999.0,26,0.00,,,-99.99,,2013-08-28 22:43:00,
2013-08-28 15:54:00,92.0,53.0,-100.00,North,5,5.0,-999.0,26,0.00,,,-99.99,,2013-08-28 22:54:00,
2013-08-28 16:00:00,93.0,52.0,-100.00,NNW,347,8.0,-999.0,25,0.00,,,-99.99,,2013-08-28 23:00:00,
2013-08-28 16:42:00,93.0,52.0,-100.00,NNW,347,8.0,-999.0,25,0.00,,,-99.99,,2013-08-28 23:42:00,
2013-08-28 16:53:00,93.0,52.0,-100.00,NNW,347,8.0,-999.0,25,0.00,,,-99.99,,2013-08-28 23:53:00,
2013-08-28 18:00:00,95.0,55.0,-100.00,NW,304,8.0,-999.0,26,0.00,,,-99.99,,2013-08-29 01:00:00,
2013-08-28 18:42:00,95.0,55.0,-100.00,NW,304,8.0,-999.0,26,0.00,,,-99.99,,2013-08-29 01:42:00,
2013-08-28 18:52:00,95.0,55.0,-100.00,NW,304,8.0,-999.0,26,0.00,,,-99.99,,2013-08-29 01:52:00,
2013-08-28 19:00:00,94.0,56.0,-100.00,NW,306,8.0,-999.0,28,0.00,,,-99.99,,2013-08-29 02:00:00,
2013-08-28 19:52:00,94.0,56.0,-100.00,NW,306,8.0,-999.0,28,0.00,,,-99.99,,2013-08-29 02:52:00,
2013-08-28 20:00:00,90.0,57.0,-100.00,West,278,3.0,-999.0,33,0.00,,,-99.99,,2013-08-29 03:00:00,
2013-08-28 20:45:00,90.0,57.0,-100.00,West,278,3.0,-999.0,33,0.00,,,-99.99,,2013-08-29 03:45:00,
2013-08-28 20:57:00,90.0,57.0,-100.00,West,278,3.0,-999.0,33,0.00,,,-99.99,,2013-08-29 03:57:00,
2013-08-28 21:00:00,86.0,58.0,-100.00,WSW,245,2.0,-999.0,39,0.00,,,-99.99,,2013-08-29 04:00:00,
2013-08-28 21:46:00,86.0,58.0,-100.00,WSW,245,2.0,-999.0,39,0.00,,,-99.99,,2013-08-29 04:46:00,
2013-08-28 21:54:00,86.0,58.0,-100.00,WSW,245,2.0,-999.0,39,0.00,,,-99.99,,2013-08-29 04:54:00,
2013-08-28 22:00:00,79.0,58.0,-100.00,SSE,155,2.0,-999.0,48,0.00,,,-99.99,,2013-08-29 05:00:00,
2013-08-28 22:42:00,79.0,58.0,-100.00,SSE,155,2.0,-999.0,48,0.00,,,-99.99,,2013-08-29 05:42:00,
2013-08-28 22:52:00,79.0,58.0,-100.00,SSE,155,2.0,-999.0,48,0.00,,,-99.99,,2013-08-29 05:52:00,
2013-08-28 23:00:00,78.0,58.0,-100.00,ESE,114,2.0,-999.0,51,0.00,,,-99.99,,2013-08-29 06:00:00,
2013-08-28 23:43:00,78.0,58.0,-100.00,ESE,114,2.0,-999.0,51,0.00,,,-99.99,,2013-08-29 06:43:00,
2013-08-28 23:52:00,78.0,58.0,-100.00,ESE,114,2.0,-999.0,51,0.00,,,-99.99,,2013-08-29 06:52:00,